Location: Famechon
(49.7599°N, 2.0615°E)
Time: 10:34:30
(UTC+00:00)

COSMOS 1275 DEB - Visible Passes

Search period start: 06 October 2024 00:00
Search period end: 16 October 2024 00:00
Orbit: 733 x 763 km, 82.9° (Epoch: 05 October)

Date Brightness Start Highest point End Pass type
(mag) Time Alt. Az. Time Alt. Az. Time Alt. Az.
06 Oct ? 18:35:39 10° NNE 18:38:21 14° ENE 18:38:33 14° ENE visible
06 Oct ? 20:14:36 10° N 20:18:24 51° N 20:18:24 51° N visible
06 Oct ? 21:56:50 10° NW 21:58:15 13° WNW 21:58:15 13° WNW visible
07 Oct ? 19:32:11 10° N 19:36:19 41° NE 19:36:19 41° NE visible
07 Oct ? 21:13:06 10° NNW 21:16:10 25° WNW 21:16:10 25° WNW visible
08 Oct ? 18:50:02 10° NNE 18:54:07 23° ENE 18:54:10 23° ENE visible
08 Oct ? 20:30:01 10° NNW 20:34:01 47° NW 20:34:01 47° NW visible
09 Oct ? 18:08:34 10° NNE 18:10:51 13° ENE 18:12:00 12° ENE visible
09 Oct ? 19:47:11 10° N 19:51:50 70° NNE 19:51:50 70° NNE visible
09 Oct ? 21:29:06 10° NW 21:31:40 16° WNW 21:31:40 16° WNW visible
10 Oct ? 19:04:33 10° N 19:09:22 39° ENE 19:09:36 39° E visible
10 Oct ? 20:45:17 10° NNW 20:49:26 31° W 20:49:26 31° W visible
11 Oct ? 18:22:13 10° NNE 18:26:06 21° ENE 18:27:19 20° E visible
11 Oct ? 20:02:00 10° NNW 20:07:03 62° W 20:07:09 62° W visible
12 Oct ? 17:40:51 10° NE 17:42:32 11° ENE 17:44:12 10° ENE visible
12 Oct ? 19:18:58 10° N 19:24:05 68° ENE 19:24:50 59° SE visible
12 Oct ? 21:00:36 10° NW 21:04:01 18° W 21:04:41 18° W visible
13 Oct ? 18:36:09 10° N 18:40:50 35° ENE 18:42:32 28° ESE visible
13 Oct ? 20:16:41 10° NNW 20:21:19 35° W 20:22:22 32° WSW visible
14 Oct ? 17:53:39 10° NNE 17:57:16 19° ENE 18:00:13 12° ESE visible
14 Oct ? 19:33:12 10° NNW 19:38:19 71° W 19:40:04 41° SSW visible
14 Oct ? 21:17:07 10° WNW 21:17:49 10° WNW 21:18:31 10° W visible
15 Oct ? 18:49:58 10° N 18:55:03 59° ENE 18:57:48 26° SSE visible
15 Oct ? 20:31:19 10° NW 20:35:05 21° W 20:37:38 15° WSW visible
